| time (UTC) | temp F | wind direction | speed MPH | gust MPH | rain 1hr in | rain 24hr in | rain mn in | humidity % | barometer mb |
| 20260902082256 | 66 | 71 | 3.0 | 10.0 | 0.00 | 0.00 | 0.00 | 52 | 1008.6 |
| 20260902080801 | 66 | 55 | 1.0 | 10.0 | 0.00 | 0.00 | 0.00 | 52 | 1008.6 |
| 20260902075245 | 66 | 60 | 1.0 | 7.0 | 0.00 | 0.00 | 0.00 | 51 | 1008.6 |
| 20260902073806 | 67 | 69 | 5.0 | 10.0 | 0.00 | 0.00 | 0.00 | 50 | 1008.6 |
| 20260902072255 | 67 | 96 | 9.0 | 10.0 | 0.00 | 0.00 | 0.00 | 49 | 1008.7 |
| 20260902070817 | 67 | 90 | 6.0 | 14.0 | 0.00 | 0.00 | 0.00 | 49 | 1008.7 |
| 20260902065318 | 68 | 92 | 12.0 | 15.0 | 0.00 | 0.00 | 0.00 | 48 | 1008.7 |
| 20260902063802 | 68 | 76 | 5.0 | 13.0 | 0.00 | 0.00 | 0.00 | 47 | 1008.8 |
| 20260902062306 | 69 | 69 | 10.0 | 16.0 | 0.00 | 0.00 | 0.00 | 45 | 1008.8 |
| 20260902060743 | 70 | 100 | 6.0 | 15.0 | 0.00 | 0.00 | 0.00 | 44 | 1008.7 |
| 20260902055248 | 70 | 107 | 7.0 | 13.0 | 0.00 | 0.00 | 0.00 | 43 | 1008.8 |
| 20260902053749 | 71 | 88 | 6.0 | 15.0 | 0.00 | 0.00 | 0.00 | 43 | 1008.8 |
| 20260902052314 | 71 | 58 | 14.0 | 15.0 | 0.00 | 0.00 | 0.00 | 42 | 1008.8 |
| 20260902050753 | 71 | 67 | 10.0 | 19.0 | 0.00 | 0.00 | 0.00 | 41 | 1008.8 |
| 20260902045253 | 71 | 42 | 8.0 | 17.0 | 0.00 | 0.00 | 0.00 | 39 | 1008.7 |
| 20260902043741 | 72 | 53 | 5.0 | 17.0 | 0.00 | 0.00 | 0.00 | 38 | 1008.7 |
| 20260902042241 | 72 | 90 | 9.0 | 19.0 | 0.00 | 0.00 | 0.00 | 38 | 1009.0 |
| 20260902040745 | 72 | 48 | 12.0 | 18.0 | 0.00 | 0.00 | 0.00 | 38 | 1008.9 |
| 20260902035251 | 72 | 44 | 10.0 | 14.0 | 0.00 | 0.00 | 0.00 | 38 | 1009.0 |
| 20260902033751 | 72 | 73 | 10.0 | 17.0 | 0.00 | 0.00 | 0.00 | 39 | 1009.3 |
| 20260902032252 | 72 | 48 | 8.0 | 16.0 | 0.00 | 0.00 | 0.00 | 38 | 1009.3 |
| 20260902030801 | 73 | 77 | 2.0 | 12.0 | 0.00 | 0.00 | 0.00 | 38 | 1009.4 |
| 20260902025241 | 73 | 107 | 6.0 | 12.0 | 0.00 | 0.00 | 0.00 | 37 | 1009.4 |
| 20260902023750 | 74 | 21 | 7.0 | 13.0 | 0.00 | 0.00 | 0.00 | 37 | 1009.2 |
| 20260902022251 | 74 | 38 | 11.0 | 13.0 | 0.00 | 0.00 | 0.00 | 35 | 1009.2 |
| 20260902020752 | 75 | 29 | 3.0 | 10.0 | 0.00 | 0.00 | 0.00 | 34 | 1009.2 |
| 20260902015241 | 77 | 80 | 6.0 | 10.0 | 0.00 | 0.00 | 0.00 | 33 | 1009.0 |
| 20260902013742 | 78 | 57 | 3.0 | 11.0 | 0.00 | 0.00 | 0.00 | 32 | 1008.9 |
| 20260902012249 | 79 | 57 | 9.0 | 12.0 | 0.00 | 0.00 | 0.00 | 31 | 1009.0 |
| 20260902010749 | 80 | 76 | 6.0 | 13.0 | 0.00 | 0.00 | 0.00 | 30 | 1009.1 |
| 20260902005253 | 81 | 63 | 3.0 | 16.0 | 0.00 | 0.00 | 0.00 | 29 | 1009.2 |
| 20260902003738 | 82 | 75 | 13.0 | 19.0 | 0.00 | 0.00 | 0.00 | 28 | 1009.2 |
| 20260902002306 | 83 | 46 | 11.0 | 18.0 | 0.00 | 0.00 | 0.00 | 28 | 1009.3 |
| 20260902000743 | 84 | 53 | 13.0 | 17.0 | 0.00 | 0.00 | 0.00 | 28 | 1009.2 |
| 20260901235248 | 84 | 75 | 14.0 | 22.0 | 0.00 | 0.00 | 0.00 | 27 | 1009.4 |
| 20260901233749 | 83 | 80 | 11.0 | 15.0 | 0.00 | 0.00 | 0.00 | 27 | 1009.5 |
| 20260901232255 | 84 | 97 | 10.0 | 20.0 | 0.00 | 0.00 | 0.00 | 26 | 1009.5 |
| 20260901230756 | 85 | 96 | 11.0 | 22.0 | 0.00 | 0.00 | 0.00 | 26 | 1009.6 |
| 20260901225318 | 86 | 102 | 19.0 | 22.0 | 0.00 | 0.00 | 0.00 | 25 | 1009.8 |
| 20260901223741 | 87 | 83 | 7.0 | 16.0 | 0.00 | 0.00 | 0.00 | 25 | 1009.8 |
| 20260901222242 | 87 | 75 | 14.0 | 17.0 | 0.00 | 0.00 | 0.00 | 25 | 1009.9 |
| 20260901220745 | 87 | 69 | 7.0 | 20.0 | 0.00 | 0.00 | 0.00 | 25 | 1010.1 |
| 20260901215248 | 86 | 94 | 12.0 | 18.0 | 0.00 | 0.00 | 0.00 | 26 | 1010.3 |
| 20260901213749 | 86 | 76 | 14.0 | 21.0 | 0.00 | 0.00 | 0.00 | 26 | 1010.6 |
| 20260901212316 | 85 | 65 | 12.0 | 18.0 | 0.00 | 0.00 | 0.00 | 28 | 1010.7 |
| 20260901210757 | 86 | 70 | 12.0 | 17.0 | 0.00 | 0.00 | 0.00 | 27 | 1010.8 |
| 20260901205238 | 85 | 49 | 14.0 | 19.0 | 0.00 | 0.00 | 0.00 | 28 | 1011.0 |
| 20260901203749 | 84 | 84 | 12.0 | 17.0 | 0.00 | 0.00 | 0.00 | 28 | 1011.3 |
| 20260901202249 | 84 | 84 | 12.0 | 14.0 | 0.00 | 0.00 | 0.00 | 28 | 1011.3 |
| 20260901200756 | 83 | 102 | 11.0 | 16.0 | 0.00 | 0.00 | 0.00 | 29 | 1011.8 |
| 20260901195300 | 82 | 91 | 16.0 | 17.0 | 0.00 | 0.00 | 0.00 | 30 | 1012.0 |
| 20260901193802 | 81 | 88 | 9.0 | 18.0 | 0.00 | 0.00 | 0.00 | 31 | 1012.3 |
| 20260901192247 | 82 | 103 | 15.0 | 18.0 | 0.00 | 0.00 | 0.00 | 31 | 1012.5 |
| 20260901190749 | 81 | 53 | 4.0 | 16.0 | 0.00 | 0.00 | 0.00 | 31 | 1012.7 |
| 20260901185250 | 81 | 94 | 8.0 | 19.0 | 0.00 | 0.00 | 0.00 | 31 | 1012.9 |
| 20260901183755 | 81 | 107 | 11.0 | 19.0 | 0.00 | 0.00 | 0.00 | 29 | 1013.2 |
| 20260901182255 | 80 | 117 | 15.0 | 21.0 | 0.00 | 0.00 | 0.00 | 31 | 1013.2 |
| 20260901180740 | 80 | 102 | 15.0 | 18.0 | 0.00 | 0.00 | 0.00 | 32 | 1013.5 |
| 20260901175240 | 79 | 79 | 15.0 | 17.0 | 0.00 | 0.00 | 0.00 | 33 | 1013.4 |
| 20260901173803 | 78 | 115 | 9.0 | 17.0 | 0.00 | 0.00 | 0.00 | 33 | 1013.5 |
| 20260901172246 | 77 | 111 | 11.0 | 17.0 | 0.00 | 0.00 | 0.00 | 34 | 1013.8 |
| 20260901170749 | 77 | 107 | 12.0 | 16.0 | 0.00 | 0.00 | 0.00 | 35 | 1013.1 |
| 20260901165251 | 75 | 92 | 10.0 | 17.0 | 0.00 | 0.00 | 0.00 | 36 | 1013.3 |
| 20260901163756 | 74 | 109 | 8.0 | 14.0 | 0.00 | 0.00 | 0.00 | 37 | 1013.5 |
| 20260901162256 | 72 | 81 | 10.0 | 12.0 | 0.00 | 0.00 | 0.00 | 39 | 1013.5 |
| 20260901160802 | 71 | 121 | 10.0 | 13.0 | 0.00 | 0.00 | 0.00 | 40 | 1013.5 |
| 20260901155242 | 68 | 84 | 8.0 | 11.0 | 0.00 | 0.00 | 0.00 | 43 | 1013.7 |
| 20260901153743 | 65 | 136 | 3.0 | 11.0 | 0.00 | 0.00 | 0.00 | 48 | 1013.7 |
| 20260901152248 | 67 | 115 | 7.0 | 9.0 | 0.00 | 0.00 | 0.00 | 44 | 1013.7 |
| 20260901150809 | 65 | 79 | 4.0 | 6.0 | 0.00 | 0.00 | 0.00 | 47 | 1013.6 |
| 20260901145249 | 63 | 36 | 0.0 | 5.0 | 0.00 | 0.00 | 0.00 | 49 | 1013.6 |
| 20260901143755 | 62 | 36 | 3.0 | 6.0 | 0.00 | 0.00 | 0.00 | 52 | 1013.6 |
| 20260901142240 | 59 | 14 | 1.0 | 5.0 | 0.00 | 0.00 | 0.00 | 56 | 1013.8 |
| 20260901140808 | 57 | 10 | 0.0 | 6.0 | 0.00 | 0.00 | 0.00 | 57 | 1014.0 |
| 20260901135247 | 55 | 331 | 0.0 | 5.0 | 0.00 | 0.00 | 0.00 | 61 | 1014.0 |
| 20260901133748 | 52 | 275 | 3.0 | 3.0 | 0.00 | 0.00 | 0.00 | 65 | 1014.2 |
| 20260901132313 | 48 | 263 | 1.0 | 2.0 | 0.00 | 0.00 | 0.00 | 72 | 1014.3 |
| 20260901130752 | 45 | 259 | 0.0 | 1.0 | 0.00 | 0.00 | 0.00 | 75 | 1014.2 |
| 20260901125254 | 44 | 258 | 0.0 | 0.0 | 0.00 | 0.00 | 0.00 | 73 | 1014.4 |
| 20260901123739 | 45 | 258 | 0.0 | 0.0 | 0.00 | 0.00 | 0.00 | 73 | 1014.3 |
| 20260901122244 | 45 | 258 | 0.0 | 3.0 | 0.00 | 0.00 | 0.00 | 72 | 1014.0 |
| 20260901120753 | 45 | 240 | 0.0 | 1.0 | 0.00 | 0.00 | 0.00 | 73 | 1013.9 |
| 20260901115314 | 45 | 239 | 0.0 | 0.0 | 0.00 | 0.00 | 0.00 | 72 | 1014.0 |
| 20260901113756 | 46 | 240 | 0.0 | 0.0 | 0.00 | 0.00 | 0.00 | 72 | 1014.1 |
| 20260901112241 | 46 | 240 | 0.0 | 4.0 | 0.00 | 0.00 | 0.00 | 70 | 1013.9 |
| 20260901110802 | 48 | 285 | 0.0 | 0.0 | 0.00 | 0.00 | 0.00 | 67 | 1013.7 |
| 20260901105242 | 48 | 285 | 0.0 | 0.0 | 0.00 | 0.00 | 0.00 | 67 | 1013.6 |
| 20260901103750 | 47 | 285 | 0.0 | 2.0 | 0.00 | 0.00 | 0.00 | 68 | 1014.5 |
| 20260901102251 | 48 | 285 | 0.0 | 0.0 | 0.00 | 0.00 | 0.00 | 68 | 1014.5 |
| 20260901100756 | 48 | 285 | 0.0 | 0.0 | 0.00 | 0.00 | 0.00 | 67 | 1014.6 |
| 20260901095256 | 48 | 285 | 0.0 | 1.0 | 0.00 | 0.00 | 0.00 | 67 | 1014.6 |
| 20260901093757 | 48 | 285 | 0.0 | 1.0 | 0.00 | 0.00 | 0.00 | 66 | 1014.7 |
| 20260901092301 | 48 | 285 | 0.0 | 1.0 | 0.00 | 0.00 | 0.00 | 65 | 1014.6 |
| 20260901090744 | 47 | 285 | 0.0 | 1.0 | 0.00 | 0.00 | 0.00 | 67 | 1014.5 |
| 20260901085249 | 48 | 285 | 0.0 | 2.0 | 0.00 | 0.00 | 0.00 | 64 | 1014.6 |
| 20260901083812 | 49 | 285 | 0.0 | 3.0 | 0.00 | 0.00 | 0.00 | 64 | 1014.7 |